Regional Weather Roundup
Issued by NWS

Home | Current Version | Previous Version | Graphics & Text | Print | Product List | Glossary Off
Versions: 1 2 3 4 5 6 7 8 9 10 11 12 13 14 15 16 17 18 19 20 21 22 23 24 25 26 27 28 29 30 31 32 33 34 35 36 37 38 39 40 41 42 43 44 45 46 47 48 49 50

000
ASUS44 KMEG 271500
RWRTN
TENNESSEE HOURLY STATE WEATHER ROUNDUP
NATIONAL WEATHER SERVICE MEMPHIS TN
900 AM CST THU NOV 27 2014

TNZ002-004-019-021-049-052-054-088>092-271600-
WEST TENNESSEE

CITY           SKY/WX    TMP DP  RH WIND       PRES   REMARKS
MEMPHIS INTL   PTSUNNY   40  28  62 N12       30.47R WCI  33
NWS MEMPHIS      N/A     39 N/A N/A MISG        N/A
JACKSON        CLOUDY    38  29  70 NW14      30.45R WCI  30
DYERSBURG      CLOUDY    37  21  52 N9        30.49R WCI  31
UNION CITY     CLOUDY    32  28  86 NW15      30.45R WCI  22
PARIS          CLOUDY    34  28  80 NW7       30.41R WCI  28
LEXINGTON      CLOUDY    37  28  70 N8        30.40R WCI  31
SAVANNAH       CLOUDY    37  28  70 NW9       30.41R WCI  31
$$

TNZ008-025-027-028-033-062-065-066-271600-
NORTH MIDDLE TENNESSEE

CITY           SKY/WX    TMP DP  RH WIND       PRES   REMARKS
NASHVILLE      MOSUNNY   37  31  78 NW9       30.36R WCI  30
CLARKSVILLE    CLOUDY    35  29  78 N14       30.38R WCI  26
COOKEVILLE     CLOUDY    36  32  87 NW7       30.29R WCI  30
CROSSVILLE     CLOUDY    33  30  88 NW12G20   30.24R FOG     WCI  24
$$

TNZ061-075-076-078-094-096-097-271600-
SOUTH MIDDLE TENNESSEE

CITY           SKY/WX    TMP DP  RH WIND       PRES   REMARKS
TULLAHOMA      CLOUDY    34  30  86 NW9       30.33R WCI  26
WINCHESTER     CLOUDY    36  30  80 NW6       30.33R WCI  31
SHELBYVILLE    CLOUDY    37  34  87 NW9       30.35R WCI  31
$$

TNZ017-018-042-046-047-271600-
NORTHEAST TENNESSEE

CITY           SKY/WX    TMP DP  RH WIND       PRES   REMARKS
TRI CITIES     CLOUDY    37  34  89 NW7       30.14R WCI  32
ELIZABETHTON   MIX PCPN  30  30 100 CALM      30.13R FOG
$$

TNZ012-013-036-069-073-074-271600-
CENTRAL EAST TENNESSEE

CITY           SKY/WX    TMP DP  RH WIND       PRES   REMARKS
KNOXVILLE      CLOUDY    38  32  79 W8        30.24R WCI  32
OAK RIDGE      CLOUDY    39  32  76 CALM      30.26R
GATLINBURG     CLOUDY    36  30  80 NW6       30.22R WCI  31
$$

TNZ083-085-099-271600-
SOUTHEAST TENNESSEE

CITY           SKY/WX    TMP DP  RH WIND       PRES   REMARKS
CHATTANOOGA    MOSUNNY   41  30  65 N17       30.30R
$$

SKY/WX REPORTED AS FAIR MEANS FEW OR NO CLOUDS BELOW
12 THOUSAND FEET.




USA.gov is the U.S. government's official web portal to all federal, state and local government web resources and services.